When you browse on this site, cookies collect data to enhance your experience and personalize the content and advertising you see.
Visit our Privacy Policy to learn more. By continuing to use the site, you agree to this use of cookies and data.
  • In Portugal
  • List of Countries
  • For 7 days
  • Water Temperature
  • Weather Map
  • Weather Widgets
  • user-avatar
    Login

    Hourly Weather Yerevan

    Today, 27 May, Wednesday

    Time Temperature Precipitation Wind Pressure Humidity
    00:00 +19°C° 0 mm 1 mps 693 mmHg 48%
    01:00 +18°C° 0 mm 1 mps 693 mmHg 50%
    02:00 +18°C° 0 mm 1 mps 693 mmHg 51%
    03:00 +16°C° 0 mm 1 mps 692 mmHg 53%
    04:00 +18°C° 0 mm 1 mps 693 mmHg 54%
    05:00 +19°C° 0 mm 1 mps 693 mmHg 56%
    06:00 +19°C° 0 mm 1 mps 694 mmHg 58%
    07:00 +21°C° 0 mm 1 mps 694 mmHg 52%
    08:00 +23°C° 0 mm 1 mps 694 mmHg 46%
    09:00 +25°C° 0 mm 1 mps 694 mmHg 40%
    10:00 +26°C° 0 mm 1 mps 694 mmHg 37%
    11:00 +27°C° 0 mm 1 mps 694 mmHg 34%
    12:00 +28°C° 0 mm 2 mps 694 mmHg 32%
    13:00 +29°C° 0 mm 1 mps 694 mmHg 30%
    14:00 +30°C° 0 mm 1 mps 693 mmHg 29%
    15:00 +31°C° 0 mm 1 mps 693 mmHg 27%
    16:00 +30°C° 0 mm 1 mps 693 mmHg 30%
    17:00 +30°C° 0 mm 1 mps 693 mmHg 34%
    18:00 +30°C° 0 mm 1 mps 693 mmHg 37%
    19:00 +27°C° 0 mm 1 mps 693 mmHg 39%
    20:00 +25°C° 0 mm 1 mps 693 mmHg 41%
    21:00 +23°C° 0 mm 2 mps 693 mmHg 43%
    22:00 +22°C° 0 mm 1 mps 693 mmHg 44%
    23:00 +22°C° 0 mm 1 mps 692 mmHg 46%

    Tomorrow, 28 May, Thursday

    Time Temperature Precipitation Wind Pressure Humidity
    00:00 +21°C° 0 mm 1 mps 692 mmHg 47%
    01:00 +21°C° 0 mm 1 mps 692 mmHg 47%
    02:00 +20°C° 0 mm 1 mps 692 mmHg 48%
    03:00 +20°C° 0 mm 1 mps 692 mmHg 48%
    04:00 +20°C° 0 mm 1 mps 692 mmHg 50%
    05:00 +21°C° 0 mm 1 mps 692 mmHg 52%
    06:00 +22°C° 0 mm 1 mps 692 mmHg 54%
    07:00 +24°C° 0 mm 1 mps 692 mmHg 48%
    08:00 +25°C° 0 mm 1 mps 692 mmHg 42%
    09:00 +27°C° 0 mm 1 mps 692 mmHg 37%
    10:00 +29°C° 0 mm 1 mps 692 mmHg 34%
    11:00 +30°C° 0 mm 1 mps 692 mmHg 31%
    12:00 +31°C° 0 mm 1 mps 692 mmHg 28%
    13:00 +32°C° 0 mm 1 mps 692 mmHg 26%
    14:00 +33°C° 0 mm 1 mps 691 mmHg 24%
    15:00 +33°C° 0 mm 1 mps 691 mmHg 22%
    16:00 +34°C° 0 mm 2 mps 691 mmHg 24%
    17:00 +32°C° 0 mm 2 mps 691 mmHg 26%
    18:00 +31°C° 0 mm 2 mps 691 mmHg 28%
    19:00 +29°C° 0 mm 3 mps 691 mmHg 33%
    20:00 +26°C° 0 mm 3 mps 691 mmHg 38%
    21:00 +24°C° 0 mm 3 mps 690 mmHg 43%
    22:00 +22°C° 0.2 mm 3 mps 690 mmHg 45%
    23:00 +23°C° 0.2 mm 2 mps 690 mmHg 47%

    Day after tomorrow, 29 May, Friday

    Time Temperature Precipitation Wind Pressure Humidity
    00:00 +22°C° 0.2 mm 1 mps 690 mmHg 49%
    01:00 +21°C° 0 mm 1 mps 689 mmHg 51%
    02:00 +21°C° 0 mm 1 mps 688 mmHg 53%
    03:00 +20°C° 0 mm 1 mps 688 mmHg 54%
    04:00 +21°C° 0 mm 1 mps 688 mmHg 54%
    05:00 +21°C° 0 mm 1 mps 688 mmHg 54%
    06:00 +22°C° 0 mm 1 mps 688 mmHg 54%
    07:00 +24°C° 0 mm 1 mps 687 mmHg 47%
    08:00 +26°C° 0 mm 1 mps 687 mmHg 41%
    09:00 +28°C° 0 mm 1 mps 687 mmHg 35%
    10:00 +29°C° 0 mm 2 mps 687 mmHg 32%
    11:00 +31°C° 0 mm 2 mps 687 mmHg 29%
    12:00 +33°C° 0 mm 3 mps 687 mmHg 26%
    13:00 +34°C° 0 mm 3 mps 687 mmHg 23%
    14:00 +36°C° 0 mm 4 mps 686 mmHg 20%
    15:00 +37°C° 0 mm 4 mps 686 mmHg 17%
    16:00 +35°C° 0 mm 5 mps 686 mmHg 19%
    17:00 +34°C° 0 mm 6 mps 686 mmHg 22%
    18:00 +32°C° 0 mm 6 mps 686 mmHg 25%
    19:00 +29°C° 0 mm 5 mps 686 mmHg 27%
    20:00 +26°C° 0 mm 5 mps 687 mmHg 29%
    21:00 +23°C° 0 mm 4 mps 687 mmHg 31%
    22:00 +22°C° 0 mm 3 mps 687 mmHg 32%
    23:00 +21°C° 0 mm 3 mps 687 mmHg 34%

    30 May, Saturday

    Time Temperature Precipitation Wind Pressure Humidity
    00:00 +20°C° 0 mm 3 mps 687 mmHg 35%
    01:00 +19°C° 0 mm 3 mps 687 mmHg 35%
    02:00 +18°C° 0 mm 3 mps 687 mmHg 35%
    03:00 +18°C° 0 mm 3 mps 687 mmHg 34%
    04:00 +18°C° 0 mm 2 mps 688 mmHg 36%
    05:00 +18°C° 0 mm 2 mps 688 mmHg 38%
    06:00 +18°C° 0 mm 2 mps 688 mmHg 40%
    07:00 +20°C° 0 mm 2 mps 689 mmHg 35%
    08:00 +22°C° 0 mm 3 mps 689 mmHg 30%
    09:00 +25°C° 0 mm 3 mps 689 mmHg 24%
    10:00 +26°C° 0 mm 3 mps 689 mmHg 23%
    11:00 +27°C° 0 mm 2 mps 689 mmHg 21%
    12:00 +28°C° 0 mm 2 mps 689 mmHg 19%
    13:00 +28°C° 0 mm 2 mps 689 mmHg 18%
    14:00 +29°C° 0 mm 1 mps 689 mmHg 18%
    15:00 +29°C° 0 mm 1 mps 689 mmHg 18%
    16:00 +29°C° 0 mm 1 mps 689 mmHg 20%
    17:00 +29°C° 0 mm 1 mps 689 mmHg 23%
    18:00 +28°C° 0 mm 1 mps 690 mmHg 25%
    19:00 +26°C° 0 mm 2 mps 690 mmHg 26%
    20:00 +24°C° 0 mm 2 mps 690 mmHg 28%
    21:00 +21°C° 0 mm 2 mps 690 mmHg 29%
    22:00 +20°C° 0 mm 2 mps 690 mmHg 30%
    23:00 +19°C° 0 mm 2 mps 690 mmHg 31%

    31 May, Sunday

    Time Temperature Precipitation Wind Pressure Humidity
    00:00 +19°C° 0 mm 3 mps 690 mmHg 32%
    01:00 +18°C° 0 mm 3 mps 690 mmHg 36%
    02:00 +17°C° 0 mm 2 mps 689 mmHg 40%
    03:00 +16°C° 0 mm 2 mps 689 mmHg 44%
    04:00 +17°C° 0 mm 2 mps 689 mmHg 46%
    05:00 +17°C° 0 mm 2 mps 690 mmHg 47%
    06:00 +18°C° 0 mm 2 mps 690 mmHg 48%
    07:00 +20°C° 0 mm 2 mps 690 mmHg 43%
    08:00 +23°C° 0 mm 2 mps 690 mmHg 38%
    09:00 +25°C° 0 mm 2 mps 691 mmHg 33%
    10:00 +26°C° 0 mm 1 mps 691 mmHg 30%
    11:00 +28°C° 0 mm 1 mps 691 mmHg 26%
    12:00 +29°C° 0 mm 1 mps 691 mmHg 23%
    13:00 +30°C° 0 mm 1 mps 690 mmHg 22%
    14:00 +30°C° 0 mm 1 mps 690 mmHg 21%
    15:00 +31°C° 0 mm 1 mps 690 mmHg 20%
    16:00 +30°C° 0 mm 1 mps 690 mmHg 23%
    17:00 +30°C° 0 mm 1 mps 690 mmHg 25%
    18:00 +30°C° 0 mm 1 mps 689 mmHg 27%
    19:00 +28°C° 0 mm 1 mps 690 mmHg 29%
    20:00 +25°C° 0 mm 1 mps 690 mmHg 31%
    21:00 +23°C° 0 mm 2 mps 690 mmHg 33%
    22:00 +21°C° 0 mm 2 mps 689 mmHg 36%
    23:00 +21°C° 0 mm 1 mps 689 mmHg 38%

    1 June, Monday

    Time Temperature Precipitation Wind Pressure Humidity
    00:00 +20°C° 0 mm 1 mps 689 mmHg 41%
    01:00 +20°C° 0 mm 1 mps 689 mmHg 42%
    02:00 +18°C° 0 mm 2 mps 689 mmHg 42%
    03:00 +17°C° 0 mm 2 mps 689 mmHg 43%
    04:00 +18°C° 0 mm 2 mps 689 mmHg 44%
    05:00 +19°C° 0 mm 2 mps 690 mmHg 46%
    06:00 +20°C° 0 mm 1 mps 690 mmHg 47%
    07:00 +22°C° 0 mm 1 mps 690 mmHg 42%
    08:00 +24°C° 0 mm 1 mps 690 mmHg 36%
    09:00 +26°C° 0 mm 1 mps 690 mmHg 31%
    10:00 +27°C° 0 mm 1 mps 690 mmHg 28%
    11:00 +29°C° 0 mm 1 mps 690 mmHg 25%
    12:00 +30°C° 0 mm 1 mps 690 mmHg 22%
    13:00 +31°C° 0 mm 1 mps 689 mmHg 21%
    14:00 +31°C° 0 mm 1 mps 689 mmHg 20%
    15:00 +32°C° 0 mm 1 mps 689 mmHg 19%
    16:00 +31°C° 0 mm 2 mps 689 mmHg 21%
    17:00 +31°C° 0 mm 2 mps 688 mmHg 23%
    18:00 +30°C° 0 mm 3 mps 688 mmHg 25%
    19:00 +28°C° 0 mm 3 mps 688 mmHg 26%
    20:00 +26°C° 0 mm 4 mps 689 mmHg 27%
    21:00 +23°C° 0 mm 4 mps 689 mmHg 28%
    22:00 +22°C° 0 mm 3 mps 689 mmHg 30%
    23:00 +21°C° 0 mm 2 mps 689 mmHg 31%
    Show more